Regional Weather Roundup
Issued by NWS

Home | Current Version | Previous Version | Text Only | Print | Product List | Glossary On
Versions: 1 2 3 4 5 6 7 8 9 10 11 12 13 14 15 16 17 18 19 20 21 22 23 24 25 26 27 28 29 30 31 32 33 34 35 36 37 38 39 40 41 42 43 44 45 46 47 48 49 50
000
ASUS44 KFWD 251315
RWRTX
NORTH TEXAS HOURLY WEATHER ROUNDUP
NATIONAL WEATHER SERVICE FORT WORTH TX
800 AM CDT SUN JUN 25 2017

NOTE: "FAIR" INDICATES FEW OR NO CLOUDS BELOW 12,000 FEET WITH NO
SIGNIFICANT WEATHER AND/OR OBSTRUCTIONS TO VISIBILITY.

TXZ118-119-251400-
DALLAS/FORT WORTH METROPLEX

CITY           SKY/WX    TMP DP  RH WIND       PRES   REMARKS
DFW AIRPORT    PTSUNNY   74  66  76 NE8       30.20R
DALLAS LOVE    CLOUDY    75  64  68 NE7       30.21R
FTW MEACHAM    CLOUDY    72  67  84 NE8       30.20R
DAL-EXECUTIVE  CLOUDY    73  65  75 E9        30.20R
FTW-ALLIANCE   MOSUNNY   71  66  84 NE9       30.21R
FTW-NAS-JRB    CLOUDY    74  64  71 E7        30.21R
FTW-SPINKS     PTSUNNY   72  66  83 N5        30.21R
ARLINGTON      CLOUDY    75  65  70 NE7       30.20R
GRAND PRAIRIE  CLOUDY    73  63  68 NE9       30.21S
ADDISON        CLOUDY    72  63  73 NE8       30.22R
MESQUITE       CLOUDY    72  64  78 N5        30.21R
LANCASTER      CLOUDY    73  65  78 NE8       30.21S
$$

TXZ091>094-102>105-117-120-121-131>134-251400-
NORTH CENTRAL TEXAS

CITY           SKY/WX    TMP DP  RH WIND       PRES   REMARKS
SHRMAN/DENISON SUNNY     72  64  76 E5        30.25R
GAINESVILLE    SUNNY     69  64  85 E3        30.25S
BOWIE          SUNNY     69  68  96 CALM      30.25R
BRIDGEPORT     MOSUNNY   69  66  90 E3        30.25R
DECATUR        SUNNY     69  64  83 E8        30.24R
DENTON         MOSUNNY   73  66  78 E7        30.22R
MCKINNEY       CLOUDY    71  67  87 NE8       30.22R
BONHAM         CLOUDY    70  64  83 E7        30.24R
GREENVILLE     CLOUDY    73  66  78 NE3       30.23R
ROCKWALL       CLOUDY    71  66  84 NE8       30.22R
TERRELL        CLOUDY    74  65  73 E8        30.21R
WAXAHACHIE     CLOUDY    73  67  82 NE7       30.21R
CLEBURNE       SUNNY     73  68  83 E12       30.21R
GRANBURY       SUNNY     74  66  76 CALM      30.22S
$$

TXZ083>090-098>101-113>116-127>130-139>142-154-155-251400-
WESTERN NORTH TEXAS

CITY           SKY/WX    TMP DP  RH WIND       PRES   REMARKS
WICHITA FALLS  MOSUNNY   68  60  75 E6        30.24R
WF-KICKAPOO    MOSUNNY   69  61  76 E5        30.26S
VERNON         SUNNY     70  57  63 E6        30.26S
ABILENE        CLOUDY    70  68  93 E10       30.24S
ABILENE-DYESS  CLOUDY    72  68  87 E8        30.23R
GRAHAM         PTSUNNY   70  68  95 CALM      30.22S
BRECKENRIDGE   CLOUDY    73  64  73 E8        30.22S
CISCO          SUNNY     70  66  88 E7        30.23S
EASTLAND       CLOUDY    70  66  88 E6        30.23R
MINERAL WELLS  SUNNY     72  65  78 NE6       30.21R
STEPHENVILLE   SUNNY     70  66  87 NE5       30.24S
COMANCHE       CLOUDY    69  69 100 NE5       30.22R
BROWNWOOD      SUNNY     72  68  88 NE6       30.22R
COLEMAN        CLOUDY    71  67  88 E6        30.22S
$$

TXZ143>147-156>162-174-175-251400-
CENTRAL TEXAS

CITY           SKY/WX    TMP DP  RH WIND       PRES   REMARKS
WACO           CLOUDY    73  70  90 NE7       30.17R
WACO-MCGREGOR  MOSUNNY   72  70  93 NE9       30.18R
HILLSBORO      PTSUNNY   73  68  84 NE9       30.19R
CORSICANA      CLOUDY    75  67  76 E12       30.19R
MEXIA          CLOUDY    73  70  91 NE7       30.17S
HEARNE         CLOUDY    76  76 100 NE7       30.15S
CAMERON        CLOUDY    74  72  92 NE3       30.15R
TEMPLE         CLOUDY    73  70  88 NE8       30.17R
KILLEEN        CLOUDY    72  70  93 NE8       30.17S
KILLEEN-SKYLRK CLOUDY    73  70  90 N8        30.18R
FORT HOOD      CLOUDY    71  69  95 NE6       30.15R
HAMILTON       CLOUDY    70  70 100 NE6       30.21R
LAMPASAS       CLOUDY    72  70  95 NE6       30.18R
$$

TXZ095>097-106>112-122>126-135>138-148>153-164>167-251400-
EAST TEXAS

CITY           SKY/WX    TMP DP  RH WIND       PRES   REMARKS
PARIS            N/A     71  64  78 E6        30.25R
SULPHUR SPRNGS   N/A     71  66  85 E6        30.25R
MOUNT PLEASANT CLOUDY    72  66  81 NE3       30.24R
GILMER         CLOUDY    71  66  85 CALM      30.22R
MINEOLA        CLOUDY    72  66  83 CALM      30.22R
TYLER          LGT RAIN  70  68  93 NE5       30.21R
LONGVIEW       LGT RAIN  68  67  96 E7        30.20R
MARSHALL         N/A     70  66  87 CALM      30.23R
PALESTINE      CLOUDY    73  69  89 NE9       30.19R
JACKSONVILLE   CLOUDY    69  69  97 E12       30.22R
HENDERSON      RAIN      67  66  97 E5        30.22R
CENTER         CLOUDY    74  73  95 N5        30.20S
NACOGDOCHES    PTSUNNY   72  68  88 MISG      30.17R
LUFKIN         CLOUDY    74  70  87 NE9       30.16R
$$

SUPPLEMENTAL OBSERVATIONS (NWS FORT WORTH AREA)

CITY           SKY/WX    TMP DP  RH WIND       PRES   REMARKS
DENISON DAM      N/A     72  61  68 E2          N/A
CADDO GRASSLND   N/A     70  66  88 VRB2        N/A
PAT MAYSE LAKE   N/A     70  66  88 NE3         N/A
GREENVILLE       N/A     72  66  83 NE6         N/A
CEDAR HILL       N/A     73  64  73 E5          N/A
LBJ GRASSLAND    N/A     73  64  73 E6          N/A
POSSUM KINGDOM   N/A     72  64  78 E7          N/A
GRANBURY         N/A     73  64  73 NE3         N/A
COMANCHE         N/A     70  64  83 NE5         N/A
MCGREGOR         N/A     72  66  83 N7          N/A
TEMPLE           N/A     73  68  83 NE10        N/A
LAKE LIMESTONE   N/A     75  70  83 NE7         N/A
ATHENS           N/A     72  66  83 NE2G12      N/A
$$

SUPPLEMENTAL OBSERVATIONS (NWS NORMAN AREA)

CITY           SKY/WX    TMP DP  RH WIND       PRES   REMARKS
GOODLETT         N/A     71  59  66 E10       30.26S
CROWELL          N/A     71  63  76 E9        30.26F
KNOX CITY        N/A     73  62  69 E9        30.26S
SEYMOUR          N/A     70  63  77 NE3       30.26R
MILLERS CREEK    N/A     70  63  78 E6          N/A
$$

SUPPLEMENTAL OBSERVATIONS (NWS SAN ANGELO AREA)

CITY           SKY/WX    TMP DP  RH WIND       PRES   REMARKS
WEINERT          N/A     71  64  77 E9        30.26S
HASKELL          N/A     71  65  81 E5        30.25S
THROCKMORTON     N/A     69  65  88 NE1       30.27R
STAMFORD         N/A     71  66  85 E8        30.25S
CLYDE            N/A     69  67  93 E8        30.27R
HAMBY            N/A     72  66  83 E8          N/A
IVIE RESERVOIR   N/A     72  68  88 E8          N/A
COLORADO BEND    N/A     70  68  94 E2          N/A
$$

SUPPLEMENTAL OBSERVATIONS (NWS SHREVEPORT AREA)

CITY           SKY/WX    TMP DP  RH WIND       PRES   REMARKS
TEXARKANA        N/A     72  66  83 N1          N/A
LINDEN           N/A     70  64  83 E2          N/A
GILMER           N/A     72  64  78 NE2         N/A
HENDERSON        N/A     66  64  94 E5          N/A
LUFKIN           N/A     75  68  78 MISG        N/A
N SABINE NF      N/A     70  68  94 MISG        N/A
$$

SUPPLEMENTAL OBSERVATIONS ARE A COLLECTION OF AUTOMATED INSTRUMENTS
THAT ARE MAINTAINED BY A VARIETY OF FEDERAL AND STATE AGENCIES.
CERTAIN ELEMENTS...SUCH AS HUMIDITY VALUES AND SUSTAINED WIND
SPEEDS...MAY BE APPROXIMATED.




USA.gov is the U.S. government's official web portal to all federal, state and local government web resources and services.